Regional Weather Roundup
Issued by NWS Upton, NY

Home | Current Version | Previous Version | Text Only | Print | Product List | Glossary On
Versions: 1 2 3 4 5 6 7 8 9 10 11 12 13 14 15 16 17 18 19 20 21 22 23 24 25 26 27 28 29 30 31 32 33 34 35 36 37 38 39 40 41 42 43 44 45 46 47 48 49 50
000
ASUS41 KOKX 051104
RWROKX

REGIONAL WEATHER ROUNDUP
NATIONAL WEATHER SERVICE NEW YORK NY
700 AM EDT WED AUG 05 2015

NOTE: "FAIR" INDICATES FEW OR NO CLOUDS BELOW 12,000 FEET WITH NO
SIGNIFICANT WEATHER AND/OR OBSTRUCTIONS TO VISIBILITY.

NYZ071-072-176-178-NJZ106-104-051200-
NEW YORK CITY METRO AREA


CITY           SKY/WX    TMP DP  RH WIND       PRES   REMARKS
CENTRAL PARK   MOSUNNY   73  59  61 CALM      29.94R
LAGUARDIA APRT PTSUNNY   76  61  59 CALM      29.90R
KENNEDY INTL   PTSUNNY   74  60  61 N3        29.91R
NEWARK/LIBERTY MOSUNNY   70  60  70 S3        29.91R
BRNX BOT. GARD   N/A    N/A N/A N/A NE1       29.92R
TETERBORO      MOSUNNY   70  58  65 CALM      29.90R
$$

NYZ177-179-078>081-051200-
LONG ISLAND NEW YORK

CITY           SKY/WX    TMP DP  RH WIND       PRES   REMARKS
FARMINGDALE    MOSUNNY   71  62  73 N5        29.90R
ISLIP          PTSUNNY   68  63  84 CALM      29.88R
SHIRLEY        MOSUNNY   64  61  90 CALM      29.90R
WESTHAMPTON    PTSUNNY   62  60  93 CALM      29.91S
MONTAUK POINT    N/A     68  65  90 CALM      29.90F
$$

NYZ052-065-067-051200-
HUDSON VALLEY

CITY           SKY/WX    TMP DP  RH WIND       PRES   REMARKS
WHITE PLAINS   MOSUNNY   66  62  87 NW3       29.91R
NEWBURGH       SUNNY     63  59  88 CALM      29.93R
MONTGOMERY     SUNNY     59  57  93 S3        29.92R
POUGHKEEPSIE   SUNNY     62  58  86 N5        29.91R
ALBANY         PTSUNNY   63  58  83 CALM      29.91S
$$

NJZ001-105-106-008-010-013-015-019>022-104-051200-
NEW JERSEY

CITY           SKY/WX    TMP DP  RH WIND       PRES   REMARKS
NEWARK/LIBERTY MOSUNNY   70  60  70 S3        29.91R
TETERBORO      MOSUNNY   70  58  65 CALM      29.90R
CALDWELL       MOSUNNY   64  58  80 CALM      29.93R
MORRISTOWN     PTSUNNY   61  61 100 CALM      29.91S
SOMERVILLE     PTSUNNY   59  57  93 CALM      29.91R
SUSSEX         MOSUNNY   57  55  93 CALM      29.93S
ANDOVER          N/A     60  60 100 CALM      29.94R
TRENTON        MOCLDY    66  57  72 NW7       29.92R
MILLVILLE      CLOUDY    70  69  97 CALM      29.93R FOG
ATLANTIC CITY  MOCLDY    71  69  93 SW3       29.92R
WRIGHTSTOWN    PTSUNNY   65  59  80 CALM      29.90R
TOMS RIVER       N/A     63  61  94 CALM      29.92S
BELMAR         PTSUNNY   68  54  60 CALM      29.91S
$$

PAZ047>061-062-071-051200-
EASTERN PENNSYLVANIA

CITY           SKY/WX    TMP DP  RH WIND       PRES   REMARKS
PHILADELPHIA   MOCLDY    76  55  48 W5        29.92R
ALLENTOWN      MOCLDY    62  58  86 CALM      29.94R
SCRANTON       CLEAR     61  56  83 CALM      29.96R
$$

CTZ002-004>006-009-010-012-RIZ004-006-007-MAZ004-011-015-051200-
SOUTHERN NEW ENGLAND
 IN CT

CITY           SKY/WX    TMP DP  RH WIND       PRES   REMARKS
BRADLEY INTL   MOSUNNY   65  60  84 NW3       29.89S
HARTFORD       SUNNY     66  64  93 SE3       29.89S
DANBURY        MOSUNNY   62  57  83 CALM      29.93R
WTRBRY/OXFORD  PTSUNNY   63  55  77 CALM      29.93S
BRIDGEPORT     MOSUNNY   69  63  81 CALM      29.90R
MERIDEN        MOSUNNY   63  60  90 CALM      29.90R
NEW HAVEN      MOSUNNY   66  63  90 CALM      29.90S
CHESTER        FAIR      64  61  88 CALM      29.91S
GROTON         MOSUNNY   66  62  87 N3        29.88S
WILLIMANTIC    FOG       61  60  97 CALM      29.90S VSB 1/4

 IN RI

CITY           SKY/WX    TMP DP  RH WIND       PRES   REMARKS
PROVIDENCE     SUNNY     67  61  81 CALM      29.89S
BLOCK ISLAND     N/A     68  64  88 CALM      29.89S
WESTERLY       MOSUNNY   65  62  90 CALM      29.89S

 IN MA

CITY           SKY/WX    TMP DP  RH WIND       PRES   REMARKS
BOSTON         MOSUNNY   71  59  65 CALM      29.87F
WORCESTER      SUNNY     63  56  78 W9        29.91S
WESTFIELD      SUNNY     60  58  92 N3        29.90S
PROVINCETOWN   SUNNY     70  61  73 W5        29.88S
NANTUCKET      MOSUNNY   71  67  87 CALM      29.88S
$$

ANZ330-335-338-340-345-350-353-355-051200-
COASTAL MARINE OBSERVATIONS


STATION/POSITION TIME  SKY/WX   TEMP    WIND        PRES    VSBY  WAVE
                                AIR SEA DIR/SP/G                  HT/PER
                 (UTC)          (F)     (DEG/KT/KT) (MB)    (MI)  (FT/S)
NY HARB ENTRANCE 0950            73 75  310/  6/  6 1011.8          3/ 7
4S FIRE IS       NOT AVBL
20S FIRE ISLAND  0950            75 75  210/  6/  8 1011.8          5/ 7
GREAT SOUTH BAY  1000            74 80   70/  4/  4   N/A
23SW MTP         1050            72 71  260/  2/  4 1011.5          5/ 7
HUDSON CANYON    NOT AVBL
KINGS POINT      1000            70 70   50/  3/  3 1011.6
EXECUTION ROCKS  1000            69      10/  2/  2   N/A
CENTRAL LI SOUND NOT AVBL
EASTERN LI SOUND 1000            68 68   10/  4/  4   N/A
ROBBINS REEF     1000            72     270/  4/  4 1011.4
$$


>>>>>>>>>>>>>>>>>>>>>>>>>>>> KEY <<<<<<<<<<<<<<<<<<<<<<<<<<<
>                                                          <
>     SKY/WX - SKY CONDITION/PRESENT WEATHER               <
>     TMP    - TEMPERATURE IN FAHRENHEIT                   <
>     DP     - DEWPOINT IN FAHRENHEIT                      <
>     RH     - RELATIVE HUMIDITY IN PERCENT                <
>     WIND   - DIRECTION AND SPEED IN MPH                  <
>     PRES   - MEAN SEA LEVEL PRESSURE IN INCHES OF HG     <
>     WCI    - WIND CHILL INDEX                            <
>     VSB    - VISIBILITY IN MILES                         <
>     HX     - HEAT INDEX                                  <
>     TC     - TEMPERATURE IN CELSIUS                      <
>     VRB    - VARIABLE WIND DIRECTION                     <
>                                                          <
>>>>>>>>>>>>>>>>>>>>>>>>>>>> KEY <<<<<<<<<<<<<<<<<<<<<<<<<<<




USA.gov is the U.S. government's official web portal to all federal, state and local government web resources and services.